User: anonymous
Location: Unspecified
(0.0000°N, 0.0000°E)
Time: 13:07:15
(UTC+02:00)
Language:

Cosmos 1933 - Orbit

View from above orbital plane
View from above orbital plane
View from above satellite
View from above satellite

Ground track
Ground track

The orbit data is extracted from the following two-line orbital elements,

1 18958U 88020A   14211.10273209  .00001269  00000-0  98119-4 0  3794
2 18958 082.5294 038.6311 0010872 257.0279 102.9732 15.00651719433419
Epoch (UTC): 30 July 2014 02:27:56
Eccentricity: 0.0010872
inclination: 82.5294°
perigee height: 557 km
apogee height: 572 km
right ascension of ascending node: 38.6311°
argument of perigee: 257.0279°
revolutions per day: 15.00651719
mean anomaly at epoch: 102.9732°
orbit number at epoch: 43341

The dashed part of the orbit path shows where the satellite is in the earth's shadow,  

DLR